Crane Lake, MN

10:42 AM CDT on August 18, 2017 (GMT -0500)
Crane Lake

Weather History for KCDD - January, 2012

Change the Weather History Date:

Wednesday, January 18, 2012

  Actual Average Record
Temperature  
Mean Temperature -8 °F -  
Max Temperature -2 °F 13 °F 37 °F (2017)
Min Temperature -13 °F -2 °F -25 °F (2016)
Degree Days  
Heating Degree Days 72    
Moisture  
Dew Point -14 °F    
Average Humidity 74    
Maximum Humidity 84    
Minimum Humidity 66    
Precipitation  
Precipitation 0.00 in - - ()
Sea Level Pressure  
Sea Level Pressure 29.90 in    
Wind  
Wind Speed 2 mph (NNW)    
Max Wind Speed 10 mph    
Max Gust Speed 18 mph    
Visibility 6 miles    
Events Snow    
Averages and records for this station are not official NWS values.
T = Trace of Precipitation, MM = Missing Value Source: NWS Daily Summary

Daily Weather History Graph

Daily Weather History Graph

Search for Another Location

Airport or City:

Trip Planner

Search our weather history database for the weather conditions in past years. The results will help you decide how hot, cold, wet, or windy it might be!

Date:

Astronomy

Jan. 18, 2012 Rise Set
Actual Time 7:53 AM CST 4:46 PM CST
Civil Twilight 7:18 AM CST 5:22 PM CST
Nautical Twilight 6:40 AM CST 6:00 PM CST
Astronomical Twilight 6:03 AM CST 6:37 PM CST
Moon 3:26 AM CST 12:23 PM CST
Length of Visible Light 10h 03m
Length of Day
8h 53m
Waning Crescent, 24% of the Moon is Illuminated
Jan 18
Waning Crescent
Jan 23
New
Jan 30
First Quarter
Feb 7
Full
Feb 14
Last Quarter

Hourly Weather History & Observations

Time (CST) Temp. Windchill Dew Point Humidity Pressure Visibility Wind Dir Wind Speed Gust Speed Precip Events Conditions
12:07 AM -9.4 °F -18.6 °F -16.6 °F 71% 30.16 in 10.0 mi West 3.5 mph - N/A   Clear
12:26 AM -9.4 °F - -16.6 °F 71% 30.16 in 10.0 mi Calm Calm - N/A   Clear
1:06 AM -9.4 °F - -16.6 °F 71% 30.14 in 10.0 mi Calm Calm - N/A   Clear
1:27 AM -9.4 °F - -16.6 °F 71% 30.15 in 2.0 mi Calm Calm - N/A Snow Light Snow
1:47 AM -9.4 °F - -16.6 °F 71% 30.14 in 1.5 mi Calm Calm - N/A Snow Light Snow
2:27 AM -9.4 °F - -14.8 °F 77% 30.14 in 5.0 mi Calm Calm - N/A Snow Light Snow
2:47 AM -9.4 °F - -14.8 °F 77% 30.13 in 7.0 mi Calm Calm - N/A Snow Light Snow
3:06 AM -9.4 °F - -16.6 °F 71% 30.12 in 4.0 mi Calm Calm - N/A Snow Light Snow
3:26 AM -9.4 °F - -16.6 °F 71% 30.10 in 5.0 mi Calm Calm - N/A Snow Light Snow
3:46 AM -9.4 °F - -14.8 °F 77% 30.09 in 3.0 mi Calm Calm - N/A Snow Light Snow
4:06 AM -9.4 °F - -14.8 °F 77% 30.08 in 5.0 mi Calm Calm - N/A Snow Light Snow
4:26 AM -11.2 °F - -14.8 °F 84% 30.08 in 7.0 mi Calm Calm - N/A   Mostly Cloudy
4:46 AM -11.2 °F - -16.6 °F 77% 30.07 in 10.0 mi Calm Calm - N/A   Mostly Cloudy
5:06 AM -11.2 °F - -14.8 °F 84% 30.06 in 4.0 mi Calm Calm - N/A Snow Light Snow
5:26 AM -11.2 °F - -14.8 °F 84% 30.06 in 4.0 mi Calm Calm - N/A Snow Light Snow
5:46 AM -9.4 °F - -14.8 °F 77% 30.05 in 10.0 mi Calm Calm - N/A   Mostly Cloudy
6:06 AM -9.4 °F - -14.8 °F 77% 30.03 in 10.0 mi Calm Calm - N/A   Overcast
6:26 AM -9.4 °F - -14.8 °F 77% 30.02 in 10.0 mi Calm Calm - N/A   Mostly Cloudy
6:47 AM -9.4 °F - -14.8 °F 77% 30.02 in 10.0 mi Calm Calm - N/A   Mostly Cloudy
7:06 AM -9.4 °F - -14.8 °F 77% 30.02 in 10.0 mi Calm Calm - N/A   Mostly Cloudy
7:26 AM -9.4 °F - -14.8 °F 77% 30.02 in 10.0 mi Calm Calm - N/A   Mostly Cloudy
7:46 AM -9.4 °F - -14.8 °F 77% 30.01 in 10.0 mi Calm Calm - N/A   Overcast
8:06 AM -9.4 °F - -14.8 °F 77% 29.99 in 10.0 mi Calm Calm - N/A   Overcast
8:26 AM -7.6 °F - -14.8 °F 71% 29.99 in 10.0 mi Calm Calm - N/A   Overcast
9:07 AM -7.6 °F - -13.0 °F 77% 29.96 in 10.0 mi Calm Calm - N/A   Overcast
9:26 AM -7.6 °F - -13.0 °F 77% 29.96 in 10.0 mi Calm Calm - N/A   Overcast
9:47 AM -5.8 °F - -13.0 °F 71% 29.93 in 10.0 mi Calm Calm - N/A   Overcast
10:06 AM -5.8 °F -14.5 °F -13.0 °F 71% 29.91 in 10.0 mi ESE 3.5 mph - N/A   Overcast
10:27 AM -5.8 °F - -13.0 °F 71% 29.90 in 10.0 mi Calm Calm - N/A   Overcast
10:49 AM -4.0 °F - -11.2 °F 71% 29.87 in 10.0 mi Calm Calm - N/A   Overcast
11:06 AM -4.0 °F - -11.2 °F 71% 29.84 in 10.0 mi Calm Calm - N/A   Overcast
11:27 AM -2.2 °F - -11.2 °F 66% 29.83 in 10.0 mi Calm Calm - N/A   Overcast
11:46 AM -2.2 °F -10.4 °F -11.2 °F 66% 29.80 in 7.0 mi ENE 3.5 mph - N/A Snow Light Snow
12:06 PM -2.2 °F - -11.2 °F 66% 29.79 in 5.0 mi Calm Calm - N/A Snow Light Snow
12:26 PM -2.2 °F -10.4 °F -9.4 °F 71% 29.77 in 5.0 mi North 3.5 mph - N/A   Haze
12:46 PM -2.2 °F -14.2 °F -9.4 °F 71% 29.76 in 4.0 mi North 5.8 mph - N/A   Haze
1:06 PM -2.2 °F -10.4 °F -9.4 °F 71% 29.74 in 3.0 mi NE 3.5 mph - N/A Snow Light Snow
1:26 PM -2.2 °F -12.5 °F -9.4 °F 71% 29.72 in 2.5 mi NNE 4.6 mph - N/A   Haze
2:06 PM -2.2 °F - -9.4 °F 71% 29.71 in 7.0 mi Calm Calm - N/A   Overcast
2:26 PM -2.2 °F - -9.4 °F 71% 29.70 in 3.0 mi Calm Calm - N/A Snow Light Snow
2:46 PM -2.2 °F -10.4 °F -7.6 °F 78% 29.70 in 3.0 mi North 3.5 mph - N/A Snow Light Snow
3:06 PM -2.2 °F -12.5 °F -9.4 °F 71% 29.69 in 4.0 mi North 4.6 mph - N/A Snow Light Snow
3:26 PM -2.2 °F - -9.4 °F 71% 29.69 in 2.5 mi Calm Calm - N/A Snow Light Snow
3:46 PM -4.0 °F -14.6 °F -9.4 °F 78% 29.68 in 1.0 mi NNW 4.6 mph - N/A Snow Light Snow
4:06 PM -4.0 °F -17.8 °F -9.4 °F 78% 29.70 in 0.5 mi NNW 6.9 mph - N/A Snow Light Snow
4:46 PM -5.8 °F -22.4 °F -11.2 °F 77% 29.72 in 1.2 mi NW 9.2 mph - N/A Snow Light Snow
5:06 PM -5.8 °F -21.2 °F -11.2 °F 77% 29.73 in 1.2 mi NNW 8.1 mph 16.1 mph N/A Snow Light Snow
5:26 PM -5.8 °F -19.9 °F -11.2 °F 77% 29.74 in 2.0 mi NNW 6.9 mph - N/A Snow Light Snow
6:06 PM -7.6 °F -23.4 °F -13.0 °F 77% 29.75 in 3.0 mi NNW 8.1 mph - N/A Snow Light Snow
6:26 PM -7.6 °F -24.6 °F -13.0 °F 77% 29.76 in 1.8 mi NW 9.2 mph - N/A Snow Light Snow
6:46 PM -7.6 °F -23.4 °F -13.0 °F 77% 29.77 in 5.0 mi NW 8.1 mph - N/A   Haze
7:06 PM -7.6 °F -25.7 °F -14.8 °F 71% 29.77 in 5.0 mi NNW 10.4 mph - N/A   Haze
7:26 PM -7.6 °F -23.4 °F -14.8 °F 71% 29.77 in 7.0 mi NW 8.1 mph - N/A   Clear
7:46 PM -7.6 °F -23.4 °F -14.8 °F 71% 29.77 in 5.0 mi NW 8.1 mph - N/A   Haze
8:06 PM -9.4 °F -26.8 °F -16.6 °F 71% 29.78 in 10.0 mi NW 9.2 mph - N/A   Clear
8:26 PM -9.4 °F -27.9 °F -16.6 °F 71% 29.79 in 5.0 mi NW 10.4 mph 17.3 mph N/A   Haze
8:46 PM -9.4 °F -26.8 °F -16.6 °F 71% 29.80 in 3.0 mi NW 9.2 mph 16.1 mph N/A   Haze
9:26 PM -11.2 °F -26.4 °F -18.4 °F 70% 29.81 in 7.0 mi NW 6.9 mph - N/A   Clear
9:47 PM -11.2 °F -24.8 °F -18.4 °F 70% 29.82 in 10.0 mi NW 5.8 mph - N/A   Clear
10:06 PM -11.2 °F -29.0 °F -18.4 °F 70% 29.82 in 7.0 mi NW 9.2 mph 18.4 mph N/A   Clear
10:26 PM -11.2 °F -26.4 °F -18.4 °F 70% 29.83 in 5.0 mi NW 6.9 mph - N/A   Haze
10:47 PM -11.2 °F -24.8 °F -18.4 °F 70% 29.83 in 7.0 mi NNW 5.8 mph - N/A   Clear
11:06 PM -13.0 °F -31.3 °F -18.4 °F 77% 29.84 in 5.0 mi NW 9.2 mph - N/A   Haze
11:27 PM -13.0 °F -25.1 °F -18.4 °F 77% 29.85 in 5.0 mi NW 4.6 mph - N/A   Haze
11:46 PM -13.0 °F -27.0 °F -18.4 °F 77% 29.86 in 3.0 mi NW 5.8 mph - N/A   Haze